DMSP 5D-2 F13 DEB, 40471

Orbit data source: Space-Track

DMSP 5D-2 F13 DEB, 40471 is space debris in SSO originally from a launch on Fri, 24 Mar 1995 UTC launched from the Air Force Western Test Range (AFWTR). Debris objects in space refer to the collection of defunct objects orbiting the Earth. Examples of debris include non-operational satellites, rocket bodies, and fragments generated from explosions, collisions, or faulty payload assembly.

Loading next visibility...
Identifier
40471, 1995-015BP
Orbit
SSO
Country
Flag of USUS
Related business
Manufacturer
Unknown
Mission
Spacecraft
Bus & Motor
Unknown
Mass
Unknown
Launch date (UTC)
1995-03-24 (31 years ago)
Launch vehicle
Unknown
Launch site
Air Force Western Test Range (AFWTR)
Object type
Payload
Rocket body
Debris
Shape & HBR
Unknown shape, 0.1 m
Radar Cross Section
Small (<0.1 m²)

Expand to show TLE details & history
Last TLE update: 16 hours ago

TLE from 16 hours ago
0 DMSP 5D-2 F13 DEB
1 40471U 95015BP  25286.78212404  .00005043  00000-0  20881-2 0  9990
2 40471  98.9033 306.8871 0019684 314.2961  45.6603 14.26953706547055
Epoch: 2025-10-13T18:46Z
TLE epoch observation values (Epoch: 2025-10-13T18:46:15.517Z)
Latitude
-0.00006°
Longitude
2.74249°
Altitude
794.984 km
Speed
7.461 km/s
True Right ascension
20h 27m 32s
True Declination
0° 00' 00"
Sunlit
Object was in daylight at epoch
Visualization orbit readout
Latitude
Unknown
Longitude
Unknown
Altitude
Unknown
Speed
Unknown
Apparent Right ascension
Unknown
Apparent Declination
Unknown
Sunlit
N/A
Visualization observer readout
Local Sidereal Time
05:45:07
Azimuth
Unknown
Elevation
Unknown
Doppler factor
Unknown
Orbital elements
Apogee altitude
813.218 km
Perigee altitude
784.963 km
Semi-major axis
7,177.227 km
Eccentricity
0.00197
Inclination
98.9033°
RAAN
306.8871°
Arg. of periapsis
314.2961°
True anomaly
45.8219°
Mean anomaly
45.6603°
Eccentric anomaly
45.74107°
Mean motion
3.56951 °/min
Orbital period
100.85 mins
BSTAR
0.0020881

Documentation

Showing up to 5 results
|